CW6679 Weather Reports


time (UTC)temp
F
wind
direction
speed
knots
gust
knots
rain 1hr
in
rain 24hr
in
rain mn
in
humidity
%
barometer
mb
20260504044535 48 0 0.0 0.0 0.00 0.00 0.00 68 1005.8
20260504043036 49 0 0.0 7.8 0.00 0.00 0.00 65 1006.0
20260504041541 50 0 0.0 0.0 0.00 0.00 0.00 63 1006.1
20260504040045 51 0 0.0 0.0 0.00 0.00 0.00 60 1006.2
20260504034542 51 0 0.0 0.0 0.00 0.00 0.00 60 1006.4
20260504033049 52 0 0.0 0.0 0.00 0.00 0.00 57 1006.7
20260504031542 53 0 0.0 0.0 0.00 0.00 0.00 56 1006.9
20260504030037 54 0 0.0 0.0 0.00 0.00 0.00 53 1006.8
20260504024544 55 0 0.0 0.0 0.00 0.00 0.00 52 1006.9
20260504023045 56 0 0.0 0.0 0.00 0.00 0.00 50 1006.7
20260504021549 58 0 0.0 0.0 0.00 0.00 0.00 47 1006.7
20260504020047 60 0 0.0 0.0 0.00 0.00 0.00 43 1006.6
20260504014536 63 0 0.0 0.0 0.00 0.00 0.00 40 1006.6
20260504013041 65 0 0.0 0.9 0.00 0.00 0.00 38 1006.5
20260504011542 67 0 0.0 0.0 0.00 0.00 0.00 35 1006.4
20260504010040 68 0 0.0 0.0 0.00 0.00 0.00 33 1006.2
20260504004551 69 0 0.0 0.0 0.00 0.00 0.00 32 1006.2
20260504003039 70 0 0.0 0.0 0.00 0.00 0.00 33 1006.1
20260504001534 71 0 0.0 0.0 0.00 0.00 0.00 32 1006.2
20260504000044 72 0 0.0 0.0 0.00 0.00 0.00 30 1006.1
20260503234543 73 0 0.0 0.0 0.00 0.00 0.00 30 1006.0
20260503233040 73 0 0.0 0.0 0.00 0.00 0.00 29 1006.0
20260503231549 74 0 0.0 1.7 0.00 0.00 0.00 29 1006.0
20260503230040 73 0 0.0 0.0 0.00 0.00 0.00 29 1006.0
20260503224535 74 0 0.0 0.0 0.00 0.00 0.00 29 1005.9
20260503223035 74 0 0.0 0.0 0.00 0.00 0.00 30 1006.0
20260503221543 74 0 0.0 0.0 0.00 0.00 0.00 31 1005.9
20260503220043 74 0 0.0 0.0 0.00 0.00 0.00 28 1005.8
20260503214539 74 0 0.0 0.0 0.00 0.00 0.00 31 1005.9
20260503213043 74 0 0.0 0.0 0.00 0.00 0.00 29 1005.9
20260503211542 74 28 1.7 7.8 0.00 0.00 0.00 28 1005.9
20260503210035 74 0 0.0 8.7 0.00 0.00 0.00 30 1005.9
20260503204534 74 0 0.0 7.0 0.00 0.00 0.00 33 1006.1
20260503203041 74 346 5.2 14.8 0.00 0.00 0.00 33 1006.2
20260503201541 74 327 4.3 16.5 0.00 0.00 0.00 34 1006.2
20260503200040 74 7 8.7 18.2 0.00 0.00 0.00 36 1006.4
20260503194544 73 346 9.6 20.9 0.00 0.00 0.00 34 1006.2
20260503193042 73 335 9.6 18.2 0.00 0.00 0.00 39 1006.4
20260503191536 73 345 6.1 16.5 0.00 0.00 0.00 40 1006.5
20260503190047 73 345 6.1 15.6 0.00 0.00 0.00 38 1006.2
20260503184555 72 17 10.4 20.9 0.00 0.00 0.00 37 1006.2
20260503183041 72 3 5.2 13.9 0.00 0.00 0.00 39 1006.2
20260503181538 72 36 7.8 13.9 0.00 0.00 0.00 39 1006.2
20260503180036 72 275 5.2 14.8 0.00 0.00 0.00 41 1006.4
20260503174549 72 33 5.2 9.6 0.00 0.00 0.00 42 1006.6
20260503173041 71 15 3.5 7.8 0.00 0.00 0.00 45 1006.7
20260503171541 69 12 7.0 13.9 0.00 0.00 0.00 45 1006.8
20260503081545 53 210 2.6 25.2 0.00 0.00 0.00 52 1012.5
20260503071544 54 183 4.3 8.7 0.00 0.00 0.00 49 1012.3